,,PA_Meas_PMT16A,,PR_Meas_QMR101_102,,RH_Meas_QMH101,,SR_Meas_QMS101,,TA_Meas_QMH101,,GenWind,,GenWind,
time,status,PA,status,PR,status,RH,status,SR,status,TA,status,DirAvg,status,SpdAvg,
2013-04-10, 07:12:04,VALID,916.193,VALID,0,VALID,97.3358,VALID,145.046,VALID,20.3495,VALID,117,VALID,0,
2013-04-10, 07:13:04,VALID,916.478,VALID,0,VALID,97.3281,VALID,148.376,VALID,20.3674,VALID,118,VALID,0,
2013-04-10, 07:14:04,VALID,916.438,VALID,0,VALID,97.3205,VALID,151.492,VALID,20.4064,VALID,121,VALID,0,
2013-04-10, 07:15:04,VALID,916.363,VALID,0,VALID,97.3053,VALID,154.715,VALID,20.5235,VALID,123,VALID,0,
2013-04-10, 07:16:04,VALID,916.29,VALID,0,VALID,97.2824,VALID,157.831,VALID,20.543,VALID,123,VALID,0,
2013-04-10, 07:17:04,VALID,916.364,VALID,0,VALID,97.2824,VALID,160.839,VALID,20.6015,VALID,123,VALID,0,
2013-04-10, 07:18:04,VALID,916.397,VALID,0,VALID,97.2367,VALID,164.492,VALID,20.621,VALID,123,VALID,0,
2013-04-10, 07:19:04,VALID,916.358,VALID,0,VALID,97.2138,VALID,167.716,VALID,20.6975,VALID,123,VALID,0,
2013-04-10, 07:20:04,VALID,916.769,VALID,0,VALID,97.2062,VALID,171.261,VALID,20.7771,VALID,123,VALID,0,
2013-04-10, 07:21:04,VALID,916.438,VALID,0,VALID,97.1986,VALID,174.592,VALID,20.7755,VALID,128,VALID,0,
2013-04-10, 07:22:04,VALID,916.3,VALID,0,VALID,97.1604,VALID,178.352,VALID,20.795,VALID,171,VALID,0,
2013-04-10, 07:23:04,VALID,916.291,VALID,0,VALID,97.1223,VALID,181.361,VALID,20.8145,VALID,171,VALID,0,
2013-04-10, 07:24:04,VALID,916.753,VALID,0,VALID,97.0918,VALID,184.584,VALID,20.8535,VALID,169,VALID,0,
2013-04-10, 07:25:04,VALID,916.424,VALID,0,VALID,97.0461,VALID,187.915,VALID,20.8925,VALID,175,VALID,0,
2013-04-10, 07:26:04,VALID,916.388,VALID,0,VALID,97.008,VALID,191.245,VALID,20.9316,VALID,172,VALID,0,
2013-04-10, 07:27:04,VALID,915.392,VALID,0,VALID,96.9165,VALID,194.576,VALID,20.912,VALID,161,VALID,0,
2013-04-10, 07:28:04,VALID,916.527,VALID,0,VALID,96.8555,VALID,197.692,VALID,20.9706,VALID,153,VALID,0,
2013-04-10, 07:29:04,VALID,916.649,VALID,0,VALID,96.7945,VALID,201.452,VALID,21.0681,VALID,154,VALID,0,
2013-04-10, 07:30:04,VALID,917.028,VALID,0,VALID,96.7259,VALID,205.213,VALID,21.0876,VALID,176,VALID,0,
2013-04-10, 07:31:04,VALID,916.408,VALID,0,VALID,96.642,VALID,208.866,VALID,21.125,VALID,172,VALID,0,
2013-04-10, 07:32:04,VALID,916.54,VALID,0,VALID,96.5506,VALID,212.733,VALID,21.1852,VALID,163,VALID,0,
2013-04-10, 07:33:04,VALID,916.539,VALID,0,VALID,96.4057,VALID,216.279,VALID,21.1657,VALID,167,VALID,0,
2013-04-10, 07:34:04,VALID,916.266,VALID,0,VALID,96.3066,VALID,219.61,VALID,21.2047,VALID,163,VALID,0,
2013-04-10, 07:35:04,VALID,916.739,VALID,0,VALID,96.1999,VALID,222.511,VALID,21.2632,VALID,168,VALID,0,
2013-04-10, 07:36:04,VALID,916.732,VALID,0,VALID,96.0779,VALID,226.379,VALID,21.2827,VALID,154,VALID,0,
2013-04-10, 07:37:04,VALID,916.539,VALID,0,VALID,96.0245,VALID,229.709,VALID,21.3608,VALID,154,VALID,0,
2013-04-10, 07:38:04,VALID,917.12,VALID,0,VALID,95.9483,VALID,233.255,VALID,21.4973,VALID,154,VALID,0,
2013-04-10, 07:39:04,VALID,916.669,VALID,0,VALID,96.0093,VALID,237.123,VALID,21.6729,VALID,128,VALID,0,
2013-04-10, 07:40:04,VALID,916.653,VALID,0,VALID,95.529,VALID,240.883,VALID,21.6518,VALID,46,VALID,0,
2013-04-10, 07:41:04,VALID,916.21,VALID,0,VALID,95.1555,VALID,245.503,VALID,21.751,VALID,50,VALID,0,
2013-04-10, 07:42:04,VALID,916.575,VALID,0,VALID,95.2927,VALID,251.735,VALID,21.8681,VALID,50,VALID,0,
2013-04-10, 07:43:04,VALID,916.622,VALID,0,VALID,94.9192,VALID,257.214,VALID,21.9835,VALID,78,VALID,0,
2013-04-10, 07:44:04,VALID,916.638,VALID,0,VALID,94.1263,VALID,260.867,VALID,22.003,VALID,78,VALID,0,
2013-04-10, 07:45:04,VALID,916.595,VALID,0,VALID,93.4173,VALID,263.875,VALID,22.003,VALID,102,VALID,0,
2013-04-10, 07:46:04,VALID,916.735,VALID,0,VALID,92.8685,VALID,266.561,VALID,22.0242,VALID,102,VALID,0,
2013-04-10, 07:47:04,VALID,916.76,VALID,0,VALID,92.3882,VALID,270.537,VALID,22.1022,VALID,90,VALID,0,
2013-04-10, 07:48:04,VALID,915.203,VALID,0,VALID,91.6411,VALID,275.372,VALID,22.1803,VALID,72,VALID,0,
2013-04-10, 07:49:04,VALID,916.847,VALID,0,VALID,90.124,VALID,279.992,VALID,22.2193,VALID,63,VALID,0,
2013-04-10, 07:50:04,VALID,915.358,VALID,0,VALID,89.9334,VALID,284.182,VALID,22.2388,VALID,64,VALID,0,
2013-04-10, 07:51:04,VALID,916.572,VALID,0,VALID,88.9424,VALID,289.017,VALID,22.2583,VALID,111,VALID,0,
2013-04-10, 07:52:04,VALID,916.779,VALID,0,VALID,88.7747,VALID,292.992,VALID,22.2762,VALID,113,VALID,0,
2013-04-10, 07:53:04,VALID,916.643,VALID,0,VALID,89.2473,VALID,297.505,VALID,22.3542,VALID,81,VALID,0,
2013-04-10, 07:54:04,VALID,916.681,VALID,0,VALID,89.4379,VALID,302.339,VALID,22.434,VALID,85,VALID,0,
2013-04-10, 07:55:04,VALID,916.69,VALID,0,VALID,90.0021,VALID,306.744,VALID,22.5901,VALID,94,VALID,0,
2013-04-10, 07:56:04,VALID,916.721,VALID,0,VALID,88.2715,VALID,310.397,VALID,22.5689,VALID,146,VALID,0,
2013-04-10, 07:57:04,VALID,916.644,VALID,0,VALID,87.9513,VALID,314.373,VALID,22.6292,VALID,154,VALID,0,
2013-04-10, 07:58:04,VALID,916.745,VALID,0,VALID,87.7989,VALID,319.1,VALID,22.5884,VALID,190,VALID,0,
2013-04-10, 07:59:04,VALID,916.918,VALID,0,VALID,86.4343,VALID,323.828,VALID,22.4713,VALID,171,VALID,0,
2013-04-10, 08:00:04,VALID,916.845,VALID,0,VALID,87.3948,VALID,328.985,VALID,22.5121,VALID,173,VALID,0,
2013-04-10, 08:01:04,VALID,916.794,VALID,0,VALID,87.5549,VALID,334.142,VALID,22.5494,VALID,164,VALID,0,
2013-04-10, 08:02:04,VALID,916.914,VALID,0,VALID,87.8751,VALID,338.977,VALID,22.5689,VALID,163,VALID,0,
2013-04-10, 08:03:04,VALID,916.748,VALID,0,VALID,87.6769,VALID,344.564,VALID,22.6877,VALID,163,VALID,0,
2013-04-10, 08:04:04,VALID,916.847,VALID,0,VALID,87.1128,VALID,348.432,VALID,22.7445,VALID,163,VALID,0,
2013-04-10, 08:05:04,VALID,917.153,VALID,0,VALID,85.6338,VALID,352.192,VALID,22.8031,VALID,163,VALID,0,
2013-04-10, 08:06:04,VALID,916.874,VALID,0,VALID,85.0087,VALID,355.415,VALID,22.9007,VALID,163,VALID,0,
2013-04-10, 08:07:04,VALID,916.763,VALID,0,VALID,86.3504,VALID,358.101,VALID,23.0356,VALID,163,VALID,0,
2013-04-10, 08:08:04,VALID,916.72,VALID,0,VALID,83.1791,VALID,361.539,VALID,23.1722,VALID,163,VALID,0,
2013-04-10, 08:09:04,VALID,916.844,VALID,0,VALID,82.3329,VALID,364.87,VALID,23.2911,VALID,163,VALID,0,
2013-04-10, 08:10:04,VALID,916.806,VALID,0,VALID,81.0826,VALID,366.804,VALID,23.3691,VALID,163,VALID,0,
2013-04-10, 08:11:04,VALID,916.892,VALID,0,VALID,82.6302,VALID,369.812,VALID,23.4845,VALID,163,VALID,0,
2013-04-10, 08:12:04,VALID,916.984,VALID,0,VALID,82.1576,VALID,375.399,VALID,23.662,VALID,163,VALID,0,
2013-04-10, 08:13:04,VALID,916.935,VALID,0,VALID,81.7993,VALID,378.408,VALID,23.8181,VALID,164,VALID,0,
2013-04-10, 08:14:04,VALID,916.87,VALID,0,VALID,83.2401,VALID,383.457,VALID,24.0152,VALID,164,VALID,0,
2013-04-10, 08:15:04,VALID,916.899,VALID,0,VALID,78.5898,VALID,384.962,VALID,24.0524,VALID,222,VALID,0,
2013-04-10, 08:16:04,VALID,916.94,VALID,0,VALID,78.14,VALID,388.185,VALID,23.9353,VALID,222,VALID,0,
2013-04-10, 08:17:04,VALID,916.904,VALID,0,VALID,79.9925,VALID,390.871,VALID,23.8944,VALID,222,VALID,0,
2013-04-10, 08:18:04,VALID,917.324,VALID,0,VALID,79.4817,VALID,393.235,VALID,23.8962,VALID,222,VALID,0,
2013-04-10, 08:19:04,VALID,916.893,VALID,0,VALID,78.8947,VALID,400.111,VALID,23.9158,VALID,222,VALID,0,
2013-04-10, 08:20:04,VALID,916.993,VALID,0,VALID,77.675,VALID,404.838,VALID,23.8962,VALID,222,VALID,0,
2013-04-10, 08:21:04,VALID,916.881,VALID,0,VALID,78.3611,VALID,407.095,VALID,23.8749,VALID,222,VALID,0,
2013-04-10, 08:22:04,VALID,917.1,VALID,0,VALID,79.1006,VALID,411.392,VALID,23.9158,VALID,222,VALID,0,
2013-04-10, 08:23:04,VALID,916.962,VALID,0,VALID,79.2759,VALID,415.905,VALID,23.9139,VALID,222,VALID,0,
2013-04-10, 08:24:04,VALID,917.033,VALID,0,VALID,79.2225,VALID,419.021,VALID,24.0134,VALID,222,VALID,0,
2013-04-10, 08:25:04,VALID,917.007,VALID,0,VALID,79.1539,VALID,418.591,VALID,24.2477,VALID,208,VALID,0,
2013-04-10, 08:26:04,VALID,916.922,VALID,0,VALID,75.3651,VALID,415.475,VALID,24.4997,VALID,208,VALID,0,
2013-04-10, 08:27:04,VALID,917.039,VALID,0,VALID,77.2786,VALID,407.954,VALID,24.7358,VALID,175,VALID,0,
2013-04-10, 08:28:04,VALID,917.12,VALID,0,VALID,74.6332,VALID,401.937,VALID,25.0074,VALID,175,VALID,0,
2013-04-10, 08:29:04,VALID,916.802,VALID,0,VALID,76.0512,VALID,368.308,VALID,25.2612,VALID,175,VALID,0,
2013-04-10, 08:30:04,VALID,917.039,VALID,0,VALID,74.8543,VALID,323.29,VALID,25.437,VALID,28,VALID,0,
2013-04-10, 08:31:04,VALID,916.972,VALID,0,VALID,73.5583,VALID,278.487,VALID,25.4956,VALID,28,VALID,0,
2013-04-10, 08:32:04,VALID,916.401,VALID,0,VALID,71.4543,VALID,255.173,VALID,25.3003,VALID,277,VALID,0,
2013-04-10, 08:33:04,VALID,916.933,VALID,0,VALID,70.974,VALID,280.959,VALID,24.8511,VALID,276,VALID,0,
2013-04-10, 08:34:04,VALID,915.583,VALID,0,VALID,75.1821,VALID,365.407,VALID,24.5582,VALID,276,VALID,0,
2013-04-10, 08:35:04,VALID,917.091,VALID,0,VALID,76.9965,VALID,321.249,VALID,24.4801,VALID,276,VALID,0,
2013-04-10, 08:36:04,VALID,917.04,VALID,0,VALID,76.4247,VALID,381.846,VALID,24.5973,VALID,276,VALID,0,
2013-04-10, 08:37:04,VALID,917.071,VALID,0,VALID,73.8404,VALID,402.152,VALID,24.7926,VALID,276,VALID,0,
2013-04-10, 08:38:04,VALID,917.152,VALID,0,VALID,72.8341,VALID,359.391,VALID,24.8707,VALID,276,VALID,0,
2013-04-10, 08:39:04,VALID,917.12,VALID,0,VALID,73.4592,VALID,357.672,VALID,24.9078,VALID,276,VALID,0,
2013-04-10, 08:40:04,VALID,917.157,VALID,0,VALID,73.6422,VALID,392.053,VALID,25.025,VALID,276,VALID,0,
2013-04-10, 08:41:04,VALID,917.191,VALID,0,VALID,73.8557,VALID,394.631,VALID,25.0836,VALID,294,VALID,0,
2013-04-10, 08:42:04,VALID,917.043,VALID,0,VALID,73.8861,VALID,441.368,VALID,25.0836,VALID,330,VALID,0,
2013-04-10, 08:43:04,VALID,917.072,VALID,0,VALID,73.6727,VALID,498.419,VALID,25.1441,VALID,343,VALID,0,
2013-04-10, 08:44:04,VALID,917.099,VALID,0,VALID,72.3081,VALID,498.957,VALID,25.1812,VALID,343,VALID,0,
2013-04-10, 08:45:04,VALID,917.122,VALID,0,VALID,74.2216,VALID,505.296,VALID,25.2203,VALID,343,VALID,0,
2013-04-10, 08:46:04,VALID,917.165,VALID,0,VALID,73.9243,VALID,505.618,VALID,25.3374,VALID,343,VALID,0,
2013-04-10, 08:47:04,VALID,917.249,VALID,0,VALID,72.3081,VALID,509.593,VALID,25.4937,VALID,342,VALID,0,
2013-04-10, 08:48:04,VALID,917.185,VALID,0,VALID,70.6614,VALID,508.519,VALID,25.6109,VALID,342,VALID,0,
2013-04-10, 08:49:04,VALID,917.278,VALID,0,VALID,71.1951,VALID,513.998,VALID,25.5523,VALID,272,VALID,0,
2013-04-10, 08:50:04,VALID,917.298,VALID,0,VALID,71.6449,VALID,514.965,VALID,25.2593,VALID,272,VALID,0,
2013-04-10, 08:51:04,VALID,917.192,VALID,0,VALID,72.3386,VALID,519.908,VALID,25.0874,VALID,272,VALID,0,
2013-04-10, 08:52:04,VALID,917.231,VALID,0,VALID,73.9853,VALID,517.544,VALID,24.9683,VALID,272,VALID,0,
2013-04-10, 08:53:04,VALID,917.226,VALID,0,VALID,73.0018,VALID,512.602,VALID,24.9097,VALID,273,VALID,0,
2013-04-10, 08:54:04,VALID,917.279,VALID,0,VALID,73.7642,VALID,506.907,VALID,24.8335,VALID,273,VALID,0,
2013-04-10, 08:55:04,VALID,917.196,VALID,0,VALID,74.3969,VALID,521.412,VALID,24.8511,VALID,273,VALID,0,
2013-04-10, 08:56:04,VALID,917.264,VALID,0,VALID,73.8099,VALID,493.262,VALID,24.9097,VALID,273,VALID,0,
2013-04-10, 08:57:04,VALID,917.304,VALID,0,VALID,74.74,VALID,478.973,VALID,24.7711,VALID,273,VALID,0,
2013-04-10, 08:58:04,VALID,917.316,VALID,0,VALID,75.67,VALID,517.974,VALID,24.654,VALID,254,VALID,0,
2013-04-10, 08:59:04,VALID,917.322,VALID,0,VALID,77.37,VALID,495.841,VALID,24.6149,VALID,254,VALID,0,
2013-04-10, 09:00:04,VALID,917.383,VALID,0,VALID,76.0512,VALID,469.088,VALID,24.5173,VALID,254,VALID,0,
2013-04-10, 09:01:04,VALID,917.409,VALID,0,VALID,76.2265,VALID,496.163,VALID,24.5173,VALID,254,VALID,0,
2013-04-10, 09:02:04,VALID,917.336,VALID,0,VALID,74.8162,VALID,482.303,VALID,24.6949,VALID,254,VALID,0,
2013-04-10, 09:03:04,VALID,917.441,VALID,0,VALID,74.3664,VALID,453.509,VALID,24.7888,VALID,254,VALID,0,
2013-04-10, 09:04:04,VALID,917.409,VALID,0,VALID,74.6104,VALID,442.228,VALID,24.8669,VALID,267,VALID,0,
2013-04-10, 09:05:04,VALID,917.299,VALID,0,VALID,74.2749,VALID,454.154,VALID,25.0426,VALID,317,VALID,0,
2013-04-10, 09:06:04,VALID,917.428,VALID,0,VALID,73.3373,VALID,415.475,VALID,25.1793,VALID,316,VALID,0,
2013-04-10, 09:07:04,VALID,917.396,VALID,0,VALID,73.7718,VALID,416.764,VALID,25.357,VALID,315,VALID,0,
2013-04-10, 09:08:04,VALID,917.516,VALID,0,VALID,73.6651,VALID,409.781,VALID,25.3374,VALID,251,VALID,0,
2013-04-10, 09:09:04,VALID,917.352,VALID,0,VALID,71.965,VALID,427.401,VALID,25.1812,VALID,256,VALID,0,
2013-04-10, 09:10:04,VALID,917.471,VALID,0,VALID,73.444,VALID,420.525,VALID,25.025,VALID,251,VALID,0,
2013-04-10, 09:11:04,VALID,917.381,VALID,0,VALID,72.4758,VALID,417.301,VALID,24.9645,VALID,252,VALID,0,
2013-04-10, 09:12:04,VALID,917.484,VALID,0,VALID,72.9256,VALID,450.178,VALID,24.8902,VALID,270,VALID,0,
2013-04-10, 09:13:04,VALID,917.454,VALID,0,VALID,73.1162,VALID,435.029,VALID,24.8902,VALID,270,VALID,0,
2013-04-10, 09:14:04,VALID,917.144,VALID,0,VALID,72.8951,VALID,373.036,VALID,24.9859,VALID,270,VALID,0,
2013-04-10, 09:15:04,VALID,917.348,VALID,0,VALID,72.796,VALID,402.689,VALID,25.0836,VALID,256,VALID,0,
2013-04-10, 09:16:04,VALID,917.441,VALID,0,VALID,73.4059,VALID,429.872,VALID,25.064,VALID,249,VALID,0,
2013-04-10, 09:17:04,VALID,917.402,VALID,0,VALID,74.4198,VALID,414.293,VALID,25.1422,VALID,249,VALID,0,
2013-04-10, 09:18:04,VALID,917.247,VALID,0,VALID,73.4669,VALID,402.475,VALID,25.3589,VALID,339,VALID,0,
2013-04-10, 09:19:04,VALID,917.641,VALID,0,VALID,72.2014,VALID,403.764,VALID,25.4351,VALID,355,VALID,0,
2013-04-10, 09:20:04,VALID,917.411,VALID,0,VALID,72.7198,VALID,432.128,VALID,25.4956,VALID,312,VALID,0,
2013-04-10, 09:21:04,VALID,917.35,VALID,0,VALID,70.6386,VALID,472.419,VALID,25.4956,VALID,267,VALID,0,
2013-04-10, 09:22:04,VALID,917.579,VALID,0,VALID,73.7642,VALID,439.219,VALID,25.5347,VALID,267,VALID,0,
2013-04-10, 09:23:04,VALID,917.449,VALID,0,VALID,69.1444,VALID,398.284,VALID,25.6694,VALID,346,VALID,0,
2013-04-10, 09:24:04,VALID,917.414,VALID,0,VALID,68.1381,VALID,426.864,VALID,25.8472,VALID,348,VALID,0,
2013-04-10, 09:25:04,VALID,917.492,VALID,0,VALID,68.8166,VALID,575.025,VALID,25.9038,VALID,359,VALID,0,
2013-04-10, 09:26:04,VALID,917.501,VALID,0,VALID,70.0821,VALID,614.134,VALID,25.9253,VALID,354,VALID,0,
2013-04-10, 09:27:04,VALID,917.681,VALID,0,VALID,70.5318,VALID,564.281,VALID,25.9839,VALID,291,VALID,0,
2013-04-10, 09:28:04,VALID,917.476,VALID,0,VALID,71.4162,VALID,508.734,VALID,26.0816,VALID,338,VALID,0,
2013-04-10, 09:29:04,VALID,917.72,VALID,0,VALID,71.1189,VALID,495.841,VALID,26.3356,VALID,19,VALID,0,
2013-04-10, 09:30:04,VALID,917.467,VALID,0,VALID,69.8229,VALID,516.04,VALID,26.4528,VALID,3,VALID,0,
2013-04-10, 09:31:04,VALID,917.346,VALID,0,VALID,68.5193,VALID,475.964,VALID,26.5309,VALID,281,VALID,0,
2013-04-10, 09:32:04,VALID,917.599,VALID,0,VALID,69.8686,VALID,456.303,VALID,26.5485,VALID,344,VALID,0,
2013-04-10, 09:33:04,VALID,917.594,VALID,0,VALID,69.1749,VALID,415.153,VALID,26.5114,VALID,347,VALID,0,
2013-04-10, 09:34:04,VALID,917.624,VALID,0,VALID,67.9856,VALID,443.41,VALID,26.316,VALID,357,VALID,0,
2013-04-10, 09:35:04,VALID,917.664,VALID,0,VALID,67.452,VALID,406.88,VALID,26.2164,VALID,251,VALID,0,
2013-04-10, 09:36:04,VALID,917.439,VALID,0,VALID,68.6641,VALID,409.136,VALID,26.1558,VALID,22,VALID,0,
2013-04-10, 09:37:04,VALID,917.536,VALID,0,VALID,68.4811,VALID,401.722,VALID,26.1382,VALID,21,VALID,0,
2013-04-10, 09:38:04,VALID,917.094,VALID,0,VALID,68.8242,VALID,436.319,VALID,26.023,VALID,6,VALID,0,
2013-04-10, 09:39:04,VALID,917.57,VALID,0,VALID,70.4785,VALID,406.88,VALID,25.9038,VALID,10,VALID,0,
2013-04-10, 09:40:04,VALID,917.522,VALID,0,VALID,70.4327,VALID,376.581,VALID,25.7866,VALID,3,VALID,0,
2013-04-10, 09:41:04,VALID,917.58,VALID,0,VALID,70.1354,VALID,388.185,VALID,25.7476,VALID,308,VALID,0,
2013-04-10, 09:42:04,VALID,917.558,VALID,0,VALID,68.3439,VALID,352.837,VALID,25.8062,VALID,308,VALID,0,
2013-04-10, 09:43:04,INVALID,920.093,VALID,0,VALID,67.8865,VALID,351.762,VALID,25.8648,VALID,329,VALID,0,
2013-04-10, 09:44:04,VALID,917.524,VALID,0,VALID,70.509,VALID,354.448,VALID,25.8081,VALID,325,VALID,0,
2013-04-10, 09:45:04,VALID,917.52,VALID,0,VALID,70.9283,VALID,368.308,VALID,25.7495,VALID,358,VALID,0,
2013-04-10, 09:46:04,VALID,917.714,VALID,0,VALID,72.8722,VALID,383.35,VALID,25.8062,VALID,7,VALID,0,
2013-04-10, 09:47:04,INVALID,915.686,VALID,0,VALID,70.5318,VALID,403.549,VALID,25.9449,VALID,24,VALID,0,
2013-04-10, 09:48:04,VALID,917.611,VALID,0,VALID,69.8457,VALID,440.186,VALID,26.0425,VALID,13,VALID,0,
2013-04-10, 09:49:04,VALID,917.546,VALID,0,VALID,69.4341,VALID,454.476,VALID,25.9624,VALID,14,VALID,0,
2013-04-10, 09:50:04,VALID,917.51,VALID,0,VALID,70.4632,VALID,473.063,VALID,25.9253,VALID,32,VALID,0,
2013-04-10, 09:51:04,VALID,917.64,VALID,0,VALID,71.744,VALID,541.074,VALID,26.023,VALID,28,VALID,0,
2013-04-10, 09:52:04,VALID,917.542,VALID,0,VALID,70.4175,VALID,572.984,VALID,26.1773,VALID,12,VALID,0,
2013-04-10, 09:53:04,VALID,917.717,VALID,0,VALID,71.1875,VALID,609.299,VALID,26.3551,VALID,33,VALID,0,
2013-04-10, 09:54:04,VALID,916.088,VALID,0,VALID,70.2498,VALID,579.86,VALID,26.5505,VALID,11,VALID,0,
2013-04-10, 09:55:04,VALID,917.733,VALID,0,VALID,66.1789,VALID,612.737,VALID,26.6872,VALID,344,VALID,0,
2013-04-10, 09:56:04,VALID,917.69,VALID,0,VALID,66.0569,VALID,612.629,VALID,26.7263,VALID,13,VALID,0,
2013-04-10, 09:57:04,VALID,917.523,VALID,0,VALID,67.3681,VALID,613.489,VALID,26.5289,VALID,4,VALID,0,
2013-04-10, 09:58:04,VALID,917.763,VALID,0,VALID,66.7506,VALID,697.401,VALID,26.4723,VALID,354,VALID,0,
2013-04-10, 09:59:04,VALID,917.917,VALID,0,VALID,65.8739,VALID,693.747,VALID,26.3551,VALID,294,VALID,0,
2013-04-10, 10:00:04,VALID,917.678,VALID,0,VALID,70.4099,VALID,738.98,VALID,26.314,VALID,15,VALID,0,
2013-04-10, 10:01:04,VALID,917.66,VALID,0,VALID,68.3363,VALID,633.473,VALID,26.4703,VALID,30,VALID,0,
2013-04-10, 10:02:04,VALID,917.668,VALID,0,VALID,68.3973,VALID,566.537,VALID,26.6852,VALID,29,VALID,0,
2013-04-10, 10:03:04,VALID,917.642,VALID,0,VALID,68.1686,VALID,644.647,VALID,26.8806,VALID,26,VALID,0,
2013-04-10, 10:04:04,VALID,917.686,VALID,0,VALID,68.0847,VALID,664.846,VALID,26.9999,VALID,20,VALID,0,
2013-04-10, 10:05:04,VALID,917.708,VALID,0,VALID,68.1305,VALID,542.363,VALID,27.1367,VALID,6,VALID,0,
2013-04-10, 10:06:04,VALID,918.492,VALID,0,VALID,65.4928,VALID,514.965,VALID,27.2127,VALID,43,VALID,0,
2013-04-10, 10:07:04,INVALID,916.488,VALID,0,VALID,64.982,VALID,482.626,VALID,27.2518,VALID,19,VALID,0,
2013-04-10, 10:08:04,VALID,917.811,VALID,0,VALID,63.7623,VALID,476.072,VALID,27.2734,VALID,227,VALID,0,
2013-04-10, 10:09:04,VALID,917.606,VALID,0,VALID,66.4991,VALID,545.694,VALID,27.1932,VALID,281,VALID,0,
2013-04-10, 10:10:04,INVALID,919.886,VALID,0,VALID,66.5219,VALID,543.652,VALID,27.33,VALID,30,VALID,0,
2013-04-10, 10:11:04,VALID,917.653,VALID,0,VALID,63.1295,VALID,547.52,VALID,27.4472,VALID,18,VALID,0,
2013-04-10, 10:12:04,VALID,917.355,VALID,0,VALID,62.8627,VALID,550.958,VALID,27.4863,VALID,27,VALID,0,
2013-04-10, 10:13:04,VALID,917.65,VALID,0,VALID,61.925,VALID,445.129,VALID,27.508,VALID,27,VALID,0,
2013-04-10, 10:14:04,VALID,917.705,VALID,0,VALID,64.578,VALID,418.161,VALID,27.4277,VALID,22,VALID,0,
2013-04-10, 10:15:04,VALID,917.629,VALID,0,VALID,65.0354,VALID,545.371,VALID,27.3475,VALID,9,VALID,0,
2013-04-10, 10:16:04,VALID,918.515,VALID,0,VALID,63.9681,VALID,572.232,VALID,27.33,VALID,34,VALID,0,
2013-04-10, 10:17:04,VALID,917.71,VALID,0,VALID,65.4623,VALID,532.586,VALID,27.33,VALID,343,VALID,0,
2013-04-10, 10:18:04,VALID,918.414,VALID,0,VALID,65.6986,VALID,599.092,VALID,27.3691,VALID,21,VALID,0,
2013-04-10, 10:19:04,INVALID,914.729,VALID,0,VALID,65.2031,VALID,571.479,VALID,27.4277,VALID,10,VALID,0,
2013-04-10, 10:20:04,VALID,916.926,VALID,0,VALID,61.6963,VALID,534.735,VALID,27.4863,VALID,20,VALID,0,
2013-04-10, 10:21:04,VALID,917.761,VALID,0,VALID,60.5452,VALID,648.085,VALID,27.4472,VALID,2,VALID,0,
2013-04-10, 10:22:04,VALID,917.359,VALID,0,VALID,62.7331,VALID,620.258,VALID,27.4082,VALID,359,VALID,0,
2013-04-10, 10:23:04,VALID,917.407,VALID,0,VALID,62.9313,VALID,509.486,VALID,27.4668,VALID,322,VALID,0,
2013-04-10, 10:24:04,VALID,918.127,VALID,0,VALID,61.2465,VALID,598.34,VALID,27.4472,VALID,344,VALID,0,
2013-04-10, 10:25:04,VALID,917.699,VALID,0,VALID,60.0344,VALID,593.827,VALID,27.3886,VALID,327,VALID,0,
2013-04-10, 10:26:04,VALID,917.727,VALID,0,VALID,61.8869,VALID,586.951,VALID,27.2909,VALID,323,VALID,0,
2013-04-10, 10:27:04,VALID,917.698,VALID,0,VALID,62.9084,VALID,564.603,VALID,27.3104,VALID,326,VALID,0,
2013-04-10, 10:28:04,VALID,917.673,VALID,0,VALID,62.7255,VALID,572.017,VALID,27.3104,VALID,10,VALID,0,
2013-04-10, 10:29:04,VALID,917.653,VALID,0,VALID,65.9426,VALID,575.777,VALID,27.1737,VALID,16,VALID,0,
2013-04-10, 10:30:04,VALID,917.647,VALID,0,VALID,62.634,VALID,571.265,VALID,27.1541,VALID,17,VALID,0,
2013-04-10, 10:31:04,VALID,917.606,VALID,0,VALID,62.6035,VALID,556.545,VALID,27.3104,VALID,38,VALID,0,
2013-04-10, 10:32:04,VALID,917.649,VALID,0,VALID,60.9111,VALID,587.273,VALID,27.4082,VALID,335,VALID,0,
2013-04-10, 10:33:04,VALID,917.667,VALID,0,VALID,62.6416,VALID,586.844,VALID,27.4863,VALID,360,VALID,0,
2013-04-10, 10:34:04,VALID,917.654,VALID,0,VALID,62.4586,VALID,597.91,VALID,27.6817,VALID,358,VALID,0,
2013-04-10, 10:35:04,VALID,917.629,VALID,0,VALID,62.4739,VALID,598.877,VALID,27.7404,VALID,322,VALID,0,
2013-04-10, 10:36:04,VALID,917.663,VALID,0,VALID,63.7851,VALID,578.463,VALID,27.6015,VALID,328,VALID,0,
2013-04-10, 10:37:04,VALID,917.64,VALID,0,VALID,62.7636,VALID,547.628,VALID,27.6036,VALID,310,VALID,0,
2013-04-10, 10:38:04,VALID,917.633,VALID,0,VALID,62.6569,VALID,519.8,VALID,27.6231,VALID,311,VALID,0,
2013-04-10, 10:39:04,VALID,917.616,VALID,0,VALID,60.5223,VALID,516.255,VALID,27.799,VALID,2,VALID,0,
2013-04-10, 10:40:04,VALID,917.577,VALID,0,VALID,60.7739,VALID,538.602,VALID,27.9163,VALID,2,VALID,0,
2013-04-10, 10:41:04,VALID,917.568,VALID,0,VALID,61.3533,VALID,550.421,VALID,27.9944,VALID,2,VALID,0,
2013-04-10, 10:42:04,VALID,917.615,VALID,0,VALID,60.934,VALID,557.942,VALID,27.9358,VALID,12,VALID,0,
2013-04-10, 10:43:04,VALID,917.587,VALID,0,VALID,60.3775,VALID,568.793,VALID,27.9532,VALID,6,VALID,0,
2013-04-10, 10:44:04,VALID,917.604,VALID,0,VALID,62.3824,VALID,557.512,VALID,28.0335,VALID,13,VALID,0,
2013-04-10, 10:45:04,VALID,917.572,VALID,0,VALID,60.6138,VALID,555.471,VALID,28.0705,VALID,17,VALID,0,
2013-04-10, 10:46:04,VALID,917.572,VALID,0,VALID,59.7142,VALID,555.471,VALID,28.1334,VALID,6,VALID,0,
2013-04-10, 10:47:04,VALID,917.55,VALID,0,VALID,57.4424,VALID,560.628,VALID,28.0726,VALID,352,VALID,0,
2013-04-10, 10:48:04,VALID,917.557,VALID,0,VALID,59.394,VALID,566.537,VALID,27.9358,VALID,292,VALID,0,
2013-04-10, 10:49:04,VALID,917.548,VALID,0,VALID,59.5084,VALID,560.843,VALID,27.9728,VALID,292,VALID,0,
2013-04-10, 10:50:04,VALID,917.548,VALID,0,VALID,60.3775,VALID,562.24,VALID,28.1096,VALID,292,VALID,0,
2013-04-10, 10:51:04,VALID,917.529,VALID,0,VALID,57.6483,VALID,576.207,VALID,28.229,VALID,8,VALID,0,
2013-04-10, 10:52:04,VALID,917.506,VALID,0,VALID,61.4142,VALID,575.133,VALID,28.2681,VALID,22,VALID,0,
2013-04-10, 10:53:04,VALID,917.509,VALID,0,VALID,57.351,VALID,576.099,VALID,28.2464,VALID,18,VALID,0,
2013-04-10, 10:54:04,VALID,917.475,VALID,0,VALID,58.6851,VALID,592.001,VALID,28.3267,VALID,14,VALID,0,
2013-04-10, 10:55:04,VALID,917.488,VALID,0,VALID,59.92,VALID,613.811,VALID,28.1877,VALID,360,VALID,0,
2013-04-10, 10:56:04,VALID,917.405,VALID,0,VALID,56.7792,VALID,620.15,VALID,28.1877,VALID,357,VALID,0,
2013-04-10, 10:57:04,VALID,917.412,VALID,0,VALID,60.1106,VALID,634.547,VALID,27.9532,VALID,355,VALID,0,
2013-04-10, 10:58:04,VALID,917.374,VALID,0,VALID,62.1232,VALID,653.242,VALID,27.8772,VALID,14,VALID,0,
2013-04-10, 10:59:04,VALID,917.386,VALID,0,VALID,62.4891,VALID,665.705,VALID,27.9141,VALID,30,VALID,0,